CZ-3B R/B (44068 NORAD) Tracking and Keplerian Element Data

This shows tracking and keplerian element data for the satellite.

Feedback or suggestion? Click here.




ElementValue
Catalog44068
NameCZ-3B R/B
Epoch Orbit22
Epoch Day80.01855613
Epoch Year2019
RAAN48.5452
Inclination24.636
Eccentricity0.7545751
Argument of Perigee184.7675
Mean Anonmoly158.0669
Mean Motion1.98386824
Decay Rate7.383E-05
L11 44068U 19012B 19080.01855613 .00007383 96052-6 63238-3 0 9996
L22 44068 24.6360 48.5452 7545751 184.7675 158.0669 1.98386824 223

Live tracking and technical data element details for CZ-3B R/B (NORAD 44068). CZ-3B R/B can be tracked NOW for your location showing map with azimuth and elevation plus other details from your city location.

Track the satellite on the map from your city or location and see movement details for azimuth, elevation, latitude, longitude, range, height, and movement on the map or in text.







IsCatalogInMostPopularTable: catalog: 44068, numindb: 2
Update: records affected: 1



GetName: 44068 CZ-3B R/B

Hit Count: updated at: Sat, 23 Mar 2019 00:57:04 GMT